Location: �bnet
(46.9957°N, 8.4908°E)
Time: 01:10:40
(UTC+00:00)

USA 308 - Pass Details

Date: 11 May 2021
Orbit: 568 x 576 km, 54.0° (Epoch: 10 May)

Event Time Altitude Azimuth Distance (km) Brightness Sun altitude
Rises 21:21:35 0° 300° (WNW) 2,786 7.5 -19.4°
Reaches altitude 10° 21:23:52 10° 297° (WNW) 1,886 6.4 -19.6°
Maximum altitude 21:28:06 61° 218° (SW) 655 3.0 -20.0°
Enters shadow 21:28:44 53° 176° (S) 708 3.0 -20.0°
